Location: Ajisawe
(8.4333°N, 4.3833°E)
Time: 00:49:23
(UTC+00:00)

Courier 1B Rocket - Pass Details

Date: 29 April 2021
Orbit: 920 x 1202 km, 28.3° (Epoch: 13 May)

Event Time Altitude Azimuth Distance (km) Brightness Sun altitude
Rises 15:21:35 0° 285° (WNW) 3,574 9.0 35.4°
Reaches altitude 10° 15:25:12 10° 305° (NW) 2,609 8.4 34.6°
Maximum altitude 15:29:09 17° 345° (NNW) 2,130 7.3 33.6°
Drops below altitude 10° 15:33:06 10° 25° (NNE) 2,606 7.2 32.7°
Sets 15:36:43 0° 44° (NE) 3,569 7.7 31.8°
